Location: Cossonay
(46.5833°N, 6.4167°E)
Time: 21:21:43
(UTC+00:00)

STARLINK-1257 - Pass Details

Date: 10 October 2020
Orbit: 549 x 550 km, 53.0° (Epoch: 22 October)

Event Time Altitude Azimuth Distance (km) Brightness Sun altitude
Exits shadow 02:36:42 22° 58° (ENE) 1,244 6.0 -32.3°
Drops below altitude 10° 02:38:12 10° 59° (ENE) 1,826 7.1 -32.1°
Sets 02:40:26 0° 61° (ENE) 2,722 8.3 -31.8°
